Flag for Germany Past Weather in Oberursel (Taunus), Hesse, Germany — Yesterday and Last 2 Weeks

Now
79 °F

Sunny.


Feels Like: 80 °F
Forecast: 61 / 83 °F
Wind: 8 mph from East

Location: Frankfurt-M-Flughafen Airport

Current Time: Aug 24, 2016 at 9:54:37 PM

Latest Report: Aug 24, 2016 at 9:20 PM


Visibility: 10 mi

Pressure: 30.12 "Hg

Humidity: 54%

Dew Point: 61 °F

Location of Oberursel (Taunus)Location

Past Weather in Oberursel (Taunus) — Graph

°F

Oberursel (Taunus) Temperature Yesterday

Maximum temperature yesterday: 82 °F (at 3:20 PM)
Minimum temperature yesterday: 52 °F (at 6:20 AM)
Average temperature yesterday: 68 °F

High & Low Weather Summary for the Past Weeks

 TemperatureHumidityPressure
High88 °F (Aug 24, 3:20 PM)100% (Aug 12, 6:20 AM)30.39 "Hg (Aug 12, 6:20 AM)
Low43 °F (Aug 11, 6:20 AM)33% (Aug 24, 6:20 PM)29.80 "Hg (Aug 18, 1:50 PM)
Average66 °F69%30.11 "Hg
* Reported Aug 9 8:20 PM — Aug 24 8:20 PM, Oberursel (Taunus), Weather by CustomWeather, © 2016

Note: Actual official high and low records may vary slightly from our data, if they occured in-between our weather recording intervals... More about our weather records

Advertising

Oberursel (Taunus) Weather History for the Previous 24 Hours

Scroll right to see more
 ConditionsComfort  
Time TempWeatherWind HumidityBarometerVisibility
8:20 PM
Wed, Aug 24
82 °FPassing clouds.10 mph45%30.12 "HgN/A
7:50 PM86 °FSunny.12 mph38%30.12 "Hg10 mi
7:20 PM86 °FSunny.13 mph40%30.12 "Hg10 mi
6:50 PM88 °FSunny.10 mph35%30.12 "Hg10 mi
6:20 PM88 °FPassing clouds.12 mph33%30.12 "HgN/A
5:50 PM88 °FPassing clouds.10 mph35%30.15 "HgN/A
5:20 PM88 °FPassing clouds.9 mph35%30.15 "HgN/A
4:50 PM88 °FPassing clouds.8 mph38%30.15 "HgN/A
4:20 PM88 °FPassing clouds.12 mph38%30.15 "HgN/A
3:50 PM88 °FPassing clouds.10 mph38%30.15 "HgN/A
3:20 PM88 °FPassing clouds.13 mph40%30.18 "HgN/A
2:50 PM86 °FPassing clouds.13 mph40%30.18 "HgN/A
2:20 PM86 °FPassing clouds.10 mph40%30.18 "HgN/A
1:50 PM84 °FPassing clouds.13 mph43%30.18 "HgN/A
1:20 PM84 °FPassing clouds.10 mph43%30.21 "HgN/A
12:50 PM82 °FPassing clouds.12 mph45%30.21 "HgN/A
12:20 PM81 °FSunny.13 mph48%30.21 "Hg10 mi
11:50 AM81 °FPassing clouds.9 mph51%30.24 "HgN/A
11:20 AM79 °FPassing clouds.9 mph51%30.24 "HgN/A
10:50 AM77 °FSunny.9 mph54%30.24 "Hg10 mi
10:20 AM75 °FPassing clouds.8 mph57%30.24 "HgN/A
9:50 AM73 °FSunny.8 mph61%30.24 "Hg10 mi
9:20 AM72 °FSunny.9 mph65%30.24 "Hg10 mi
8:50 AM68 °FSunny.10 mph73%30.24 "Hg10 mi
8:20 AM66 °FSunny.9 mph73%30.24 "Hg10 mi
7:50 AM64 °FPassing clouds.6 mph78%30.24 "HgN/A
7:20 AM63 °FClear.8 mph83%30.24 "Hg10 mi
6:50 AM61 °FClear.6 mph83%30.24 "Hg10 mi
6:20 AM61 °FClear.6 mph83%30.24 "Hg10 mi
5:50 AM61 °FPassing clouds.6 mph83%30.24 "HgN/A
5:20 AM61 °FClear.6 mph83%30.24 "Hg10 mi
4:50 AM61 °FClear.7 mph83%30.24 "Hg10 mi
4:20 AM63 °FClear.2 mph77%30.24 "Hg10 mi
3:50 AM64 °FPassing clouds.3 mph73%30.24 "HgN/A
3:20 AM64 °FClear.5 mph78%30.24 "Hg10 mi
2:50 AM64 °FClear.6 mph73%30.24 "Hg10 mi
2:20 AM64 °FClear.6 mph73%30.24 "Hg10 mi
1:50 AM64 °FClear.3 mph78%30.24 "Hg10 mi
1:20 AM66 °FClear.6 mph73%30.24 "Hg10 mi
12:50 AM64 °FClear.2 mph78%30.24 "Hg10 mi
12:20 AM66 °FClear.5 mph73%30.24 "Hg10 mi
11:50 PM
Tue, Aug 23
64 °FPassing clouds.3 mph78%30.27 "HgN/A
11:20 PM63 °FClear.2 mph83%30.27 "Hg10 mi
10:50 PM64 °FClear.6 mph73%30.27 "Hg10 mi
10:20 PM64 °FClear.2 mph73%30.27 "Hg10 mi
9:50 PM66 °FClear.6 mph68%30.27 "Hg10 mi
9:20 PM70 °FSunny.7 mph60%30.27 "Hg10 mi
Weather by CustomWeather, © 2016

See weather overviewHow to use our weather pages